Location: Ford County Road and Bridge Department
(37.7686°N, 99.9762°W)
Time: 05:53:04
(UTC+00:00)

Cosmos 2369 - Pass Details

Date: 18 January 2020
Orbit: 839 x 856 km, 71.0° (Epoch: 17 February)

Event Time Altitude Azimuth Distance (km) Brightness Sun altitude
Exits shadow 11:37:52 18° 197° (SSW) 1,973 5.5 -26.4°
Maximum altitude 11:42:13 83° 110° (ESE) 865 3.7 -25.6°
Drops below altitude 10° 11:47:58 10° 24° (NNE) 2,494 6.3 -24.4°
Sets 11:50:25 0° 24° (NNE) 3,434 7.1 -24.0°
